一网星座-0283星 (ONEWEB-0283 )

导读

ONEWEB-0283是英国OneWeb低轨卫星互联网星座的组网卫星,于2021年7月1日发射升空。卫星重量约147.5公斤,配备Ku波段通信天线,运行于近地轨道,旨在为全球提供高速卫星互联网接入服务,尤其覆盖偏远地区与航空、海上场景。它由OneWeb与空客合资工厂制造,设计寿命满足星座长期运营需求,任务结束后会按计划安全脱轨减少空间碎片,是OneWeb全球星座部署过程中的重要组成单元。

基本信息
目录编号:
49001
目录名称:
ONEWEB-0283
国际标识:
2021-060AL
轨道中心:
EARTH
卫星名称:
一网星座-0283星
卫星全名:
一网星座-0283星 (ONEWEB-0283 )
卫星状态:
在轨 (已飞行1898 天)
发射日期:
2021-07-01 UTC
国别 :
英国 (GB)
星等 :
--
该卫星已列入 空间交会检测服务 Space Conjunction Data Service (SCDS) ,当前飞行风险评估等级: 无高风险
轨道信息
数据来源 国际轨道数据 AOE轨道数据
星历时间 2026-09-10T21:57:58+0800
23小时前
查看轨道信息
2026-09-10T06:00:00+0800
1天前
查看轨道信息
半长轴 7575.897km 7575.899km
偏心率 0.0002175 0.000232
轨道倾角 87.914° 87.914°
近地点辐角 76.853° 71.635°
升交点赤经 211.821° 211.952°
平近点角 283.284° 17.150°
近地点 1196.112km 1196.004km
远地点 1199.408km 1199.52km
周期 109.373分钟 109.373分钟
每日圈数 13.165936 13.16593
详细信息
平衡模式:
三轴稳定
覆盖范围:
全球
运营商:
一网卫星公司
运营商所在国:
英国
制造商(研发单位):
一网卫星公司
制造商所在国:
英国
使用方式:
暂无
卫星简介
OneWeb卫星网络由648颗重约125公斤的微型卫星组成,运行在1200公里的轨道上。 每颗卫星都能够提供至少每秒8千兆位的吞吐量,以使用其高吞吐量的Ku频段有效载荷为家庭和移动平台提供互联网接入。该卫星仍在工作。
2D轨道图
3D轨道图
轨道高度分析图
轨道倾角分析图
轨道综合分析图
查看轨道综合分析图
与全量物体交会距离演化趋势
与全量物体交会风险概率演化趋势